Location: Newark
(42.7133°N, 87.7910°W)
Time: 10:57:50
(UTC+00:00)

Vanguard 1 - Pass Details

Date: 27 September 2019
Orbit: 653 x 3830 km, 34.2° (Epoch: 20 October)

Event Time Altitude Azimuth Distance (km) Brightness Sun altitude
Rises 06:38:28 0° 239° (WSW) 7,113 - -47.0°
Reaches altitude 10° 06:42:51 10° 236° (WSW) 6,377 - -46.7°
Maximum altitude 07:04:39 61° 163° (SSE) 4,126 - -44.9°
Exits shadow 07:05:08 61° 159° (SSE) 4,124 12.7 -44.9°
Drops below altitude 10° 07:25:05 10° 90° (E) 6,048 14.3 -42.9°
Sets 07:29:05 0° 87° (E) 6,749 14.8 -42.4°
